FW1823 Weather Reports


time (UTC)temp
F
wind
direction
speed
knots
gust
knots
rain 1hr
in
rain 24hr
in
rain mn
in
humidity
%
barometer
mb
20260502211535 73 171 0.9 2.6 0.50 0.51 0.51 1 1010.0
20260502210029 73 242 0.9 2.6 0.49 0.49 0.49 1 1010.2
20260502204525 73 209 0.9 3.5 0.49 0.49 0.49 1 1010.0
20260502203021 74 264 0.0 4.3 0.49 0.49 0.49 1 1009.8
20260502201524 80 279 4.3 15.6 0.00 0.00 0.00 1 1010.4
20260502200012 82 242 0.9 5.2 0.00 0.00 0.00 1 1009.6
20260502194509 82 234 3.5 8.7 0.00 0.00 0.00 1 1009.6
20260502193003 82 185 1.7 8.7 0.00 0.00 0.00 1 1010.0
20260502191601 82 240 2.6 7.8 0.00 0.00 0.00 1 1010.2
20260502190054 82 214 4.3 8.7 0.00 0.00 0.00 1 1010.1
20260502184549 83 240 2.6 9.6 0.00 0.00 0.00 1 1010.2
20260502183046 83 205 5.2 9.6 0.00 0.00 0.00 1 1010.4
20260502181557 84 213 4.3 9.6 0.00 0.00 0.00 1 1010.3
20260502163015 85 123 7.0 13.0 0.00 0.00 0.00 1 1010.5
20260502161504 85 237 4.3 11.3 0.00 0.00 0.00 1 1010.9
20260502151602 85 156 5.2 13.9 0.00 0.00 0.00 1 1010.5
20260502123005 72 159 3.5 7.0 0.00 0.00 0.00 1 1009.6
20260502121600 70 137 2.6 6.1 0.00 0.00 0.00 1 1009.5
20260502114556 69 126 1.7 3.5 0.00 0.00 0.00 1 1009.6
20260502113053 68 126 1.7 3.5 0.00 0.00 0.00 1 1009.4
20260502111550 69 112 2.6 5.2 0.00 0.00 0.00 1 1009.4
20260502110046 69 112 0.9 5.2 0.00 0.00 0.00 1 1009.2
20260502104542 69 130 2.6 4.3 0.00 0.00 0.00 1 1009.2
20260502103037 69 149 3.5 7.8 0.00 0.00 0.00 1 1008.8
20260502101537 69 123 2.6 5.2 0.00 0.00 0.00 1 1009.0
20260502091515 69 151 1.7 2.6 0.00 0.00 0.00 1 1009.4
20260502080105 68 182 0.0 0.9 0.00 0.00 0.00 1 1009.7